Location: North Evanston
(42.0634°N, 87.6976°W)
Time: 19:59:28
(UTC+00:00)

Injun/Solrad 3 - Pass Details

Date: 17 May 2026
Orbit: 867 x 989 km, 66.8° (Epoch: 6 June)

Event Time Altitude Azimuth Distance (km) Brightness Sun altitude
Rises 05:53:26 0° 329° (NNW) 3,686 11.9 -28.6°
Reaches altitude 10° 05:56:00 10° 330° (NNW) 2,744 11.0 -28.6°
Maximum altitude 06:02:28 90° 46° (NE) 994 7.9 -28.5°
Enters shadow 06:02:58 78° 150° (SSE) 1,012 7.8 -28.5°
Drops below altitude 10° 06:08:55 10° 152° (SSE) 2,733 - -28.4°
Sets 06:11:28 0° 152° (SSE) 3,671 - -28.3°
